Meteo Giornale » Osservazioni meteo Stati Uniti (USA) » Athens

ore: 10:51 - Osservazioni Meteo Athens
Lat. 33° 57' N Lon. 83° 19' W Alt. 246 metri s.l.m.

sereno

32 °C

Sereno

Temp. 24 Ore

22 °C

35 °C

Nord

5.5 Km/h

Dew point 22 °C

Umidità 55 %

Visibilità  10 Km

Il sole sorge alle ore 07:07

Il sole tramonta alle ore 19:57

Data e Ora Cielo e Fenomeni T °C DP °C Um. % Pres. hPa Vis. km Vento km/h
Oggi h: 10:51 sereno Sereno 32 22 55 1020 10 N 5.5
Oggi h: 09:51 sereno Sereno 29 22 66 1020 10 N 0
Oggi h: 08:51 sereno Sereno 26 22 78 1020 10 N 0
Oggi h: 07:51 sereno Sereno 23 22 94 1020 13 N 0
Oggi h: 06:51 sereno Sereno 22 21 94 1019 10 N 0
Oggi h: 05:51 sereno Sereno 23 21 88 1019 10 N 0
Oggi h: 04:51 sereno Sereno 23 21 88 1018 10 N 0
Oggi h: 03:51 sereno Sereno 23 22 94 1018 10 N 0
Oggi h: 02:51 sereno Sereno 24 22 88 1018 10 N 0
Oggi h: 01:51 sereno Sereno 24 22 88 1018 10 N 0
Oggi h: 00:51 sereno Sereno 24 22 88 1018 10 N 0
Ieri h: 23:51 sereno Sereno 26 21 73 1018 10 N 0
Ieri h: 22:51 sereno Sereno 26 21 73 1018 10 N 0
Ieri h: 21:51 sereno Sereno 29 21 62 1018 10 N 5.5
Ieri h: 20:51 sereno Sereno 29 21 62 1017 10 N 5.5
Ieri h: 19:51 sereno Sereno 32 19 46 1017 10 N 0
Ieri h: 18:51 sereno Sereno 34 19 41 1017 10 N 5.5
Ieri h: 17:51 poco_nuvoloso Poco Nuvoloso 34 19 41 1017 10 N 0
Ieri h: 16:51 nuvoloso Nuvoloso 35 19 39 1017 10 N 5.5
Ieri h: 15:51 sereno Sereno 34 19 41 1018 10 N 0
Ieri h: 14:51 molto_nuvoloso Molto Nuvoloso 34 19 41 1019 10 N 7.4
Ieri h: 13:51 sereno Sereno 33 19 43 1019 10 N 0
Ieri h: 12:51 sereno Sereno 33 20 46 1020 10 N 5.5
Ieri h: 11:51 sereno Sereno 32 21 52 1021 10 N 9.3